Theta_e
309 308 307 306 307 305 303 297 294 304 303 295 289 288 288 292 292 295 292 292 290 288 288 286 286 285 289 295 294 288 292 288 283 285 291 293 291 288 289 284 282 285 284 285
309 309 308 307 307 305 300 293 294 303 300 288 287 289 289 291 291 291 291 289 291 292 288 284 288 288 293 294 293 290 292 286 280 282 288 291 288 289 290 289 289 285 282 285
309 309 308 308 307 306 301 295 290 294 294 292 288 285 286 287 292 292 293 291 292 289 288 290 287 288 292 294 294 297 295 287 284 279 283 287 285 287 289 289 284 285 286 288
310 309 308 308 307 305 297 291 289 290 287 287 287 288 287 285 286 292 292 290 290 288 284 285 285 289 290 293 295 294 292 284 287 287 288 288 287 287 288 286 288 284 287 288
310 310 309 307 307 304 295 290 289 292 288 288 288 288 287 287 288 288 287 287 289 290 286 287 284 287 288 288 292 290 293 285 287 284 287 287 285 287 288 288 288 288 289 288
309 309 309 307 307 304 296 294 293 291 288 287 286 287 287 287 288 290 292 290 289 288 290 293 293 294 293 291 289 288 288 286 284 280 286 286 282 287 288 289 291 290 286 291
308 307 308 307 307 304 299 297 294 288 285 286 287 287 288 287 289 287 291 293 290 295 298 296 296 293 292 291 290 291 287 286 285 281 283 274 287 296 294 292 294 296 294 295
305 305 306 306 306 307 301 299 295 290 285 288 288 288 288 289 290 289 290 294 297 298 293 289 288 289 290 290 290 289 289 286 283 279 279 283 287 290 290 288 289 297 296 297
305 305 305 305 306 307 305 301 300 294 287 288 290 287 288 286 287 289 292 296 299 295 291 288 282 282 285 285 288 294 293 288 284 284 279 277 287 291 293 291 285 298 300 298
303 303 302 304 305 306 305 303 301 296 288 291 291 287 287 290 289 286 290 292 293 294 288 283 281 282 288 283 283 284 286 287 282 282 281 285 290 292 292 283 288 295 299 300
303 303 302 303 304 305 305 301 303 296 291 293 295 295 291 290 289 284 291 290 292 291 287 285 285 283 286 285 288 287 285 284 284 285 282 280 295 291 285 290 293 294 300 302
301 301 302 302 303 302 304 298 304 302 294 293 300 300 300 298 296 291 292 291 291 292 289 289 288 285 287 286 282 292 285 288 285 284 286 294 295 292 296 296 296 298 299 302
300 301 301 302 303 304 303 301 303 299 293 293 294 293 299 300 299 300 289 294 296 293 297 291 289 286 289 284 287 288 292 295 289 289 292 293 295 297 297 298 300 301 302 303
300 300 301 301 301 303 304 300 304 299 294 287 292 300 297 302 300 299 299 297 297 297 296 291 290 288 292 289 290 289 293 294 290 290 293 295 296 297 299 300 302 303 306 308
300 300 300 301 301 301 302 301 301 302 294 288 290 297 300 301 300 297 297 295 293 295 293 290 289 294 292 294 293 291 296 293 289 289 295 294 295 300 302 301 301 303 303 306
300 301 302 302 302 302 300 294 300 302 300 291 286 297 297 300 301 297 295 294 294 295 294 293 295 299 294 290 289 295 296 297 298 294 299 300 300 302 302 302 302 303 303 304
301 302 303 303 303 301 295 293 299 303 301 291 288 290 297 299 301 300 297 298 297 297 296 294 294 296 296 293 289 294 297 298 299 301 300 296 298 297 300 301 303 304 303 303
303 303 303 303 304 302 297 301 303 302 296 295 288 290 293 300 298 295 300 296 297 297 296 298 295 296 293 291 296 296 298 299 300 300 300 299 299 298 299 300 301 299 299 300
301 301 303 303 301 296 299 305 307 302 297 290 290 288 287 297 300 301 299 299 292 298 294 296 296 292 290 295 295 296 298 298 298 300 300 299 297 297 297 298 298 297 297 298
299 297 297 296 300 302 303 300 296 294 295 294 290 294 289 295 295 294 296 294 292 289 294 298 293 292 299 299 298 300 300 301 301 299 298 297 296 295 295 297 298 298 298 298
293 288 290 295 299 300 298 292 291 291 289 293 293 293 290 297 291 292 296 292 292 288 292 292 289 290 297 300 299 301 302 303 302 302 302 300 299 296 295 296 297 298 298 298
293 292 295 295 293 292 290 288 291 288 287 293 292 292 293 296 297 294 292 291 291 285 293 292 286 294 299 299 300 302 303 303 303 303 301 301 300 298 297 296 296 297 297 298
295 292 290 290 290 283 282 281 287 288 293 296 295 293 293 294 295 293 291 288 288 292 289 288 293 298 299 300 302 302 304 304 303 303 302 301 300 299 297 296 296 296 296 298
286 287 282 284 282 285 287 288 290 296 297 295 295 293 290 295 291 293 288 291 291 286 284 287 296 298 300 301 302 303 303 303 303 303 302 300 299 298 297 296 296 294 293 295
283 286 280 284 289 290 291 293 294 296 298 296 295 296 296 291 288 292 290 287 285 287 288 293 297 299 301 301 301 303 303 304 303 304 302 300 299 297 296 296 295 294 293 293
284 283 282 287 287 289 291 292 291 296 297 295 296 292 290 289 289 287 288 287 285 290 292 296 298 300 301 302 303 303 304 304 304 304 302 301 299 297 296 296 295 293 292 292
284 284 288 288 287 287 289 291 292 295 292 290 295 288 287 291 287 287 290 288 293 295 296 297 298 301 302 303 303 303 305 304 305 304 302 300 300 298 297 295 295 293 292 292
Wind_Speed
18 20 23 26 23 24 7 4 1 4 4 2 1 1 6 6 6 2 4 6 8 7 8 9 7 9 7 10 7 13 3 5 8 6 7 6 3 4 8 9 19 11 11 6
16 17 19 22 23 19 5 5 4 2 3 2 2 4 5 5 5 7 4 4 2 3 4 7 8 10 4 11 10 3 8 1 7 6 6 4 3 3 5 6 6 15 15 9
15 16 17 20 22 18 2 3 4 3 4 1 2 4 3 6 5 10 4 9 10 5 5 12 10 14 10 10 11 16 13 5 9 9 8 7 9 11 10 7 10 13 19 19
16 14 15 18 19 17 1 4 3 2 5 2 7 4 4 8 6 4 8 3 7 8 7 14 16 12 13 17 21 10 5 8 11 15 15 15 17 18 17 17 17 15 17 20
17 14 12 14 15 16 3 3 4 2 5 7 6 3 3 8 4 5 9 7 13 16 16 17 23 19 15 6 5 2 7 7 8 15 14 15 20 21 20 23 21 24 25 24
16 15 11 11 12 7 1 1 1 2 3 4 4 2 3 7 14 10 11 14 16 16 18 16 21 21 22 16 6 5 4 4 3 8 6 5 12 21 22 21 21 17 22 20
15 17 14 8 10 1 1 1 1 2 4 3 6 11 15 14 10 14 18 17 11 9 19 20 13 7 9 9 13 14 8 11 6 6 4 7 1 6 5 14 19 18 21 20
14 14 13 13 11 11 2 1 2 2 5 5 11 8 12 14 12 13 15 16 10 11 10 6 6 1 4 2 7 8 13 4 4 4 6 9 12 5 7 6 12 13 14 17
15 14 12 15 12 13 2 3 3 1 3 3 5 10 7 7 7 7 7 12 7 4 3 3 5 4 5 4 7 8 3 10 4 5 6 5 4 6 12 8 9 1 7 12
16 15 14 14 15 11 4 3 6 3 4 6 3 5 5 4 4 6 10 7 4 2 5 4 3 4 5 5 7 6 5 4 4 9 7 5 2 14 10 6 4 16 7 5
17 16 15 14 14 13 5 4 7 4 5 9 11 11 7 5 4 3 6 8 2 3 4 3 3 3 4 5 6 8 4 6 3 4 4 3 6 8 2 6 14 15 9 10
17 16 15 15 14 14 10 4 2 4 4 7 14 19 22 23 19 6 3 5 5 2 2 1 2 3 3 5 4 3 4 4 4 2 4 10 11 13 14 14 17 12 13 16
17 16 15 16 16 13 8 3 2 2 4 7 8 9 5 4 16 15 5 4 4 3 2 1 1 5 2 3 3 4 5 3 4 7 4 12 15 11 12 15 10 14 16 17
18 17 17 16 15 14 10 4 2 2 2 4 6 4 10 6 9 19 24 2 1 1 1 2 2 4 5 3 5 5 5 8 9 6 10 16 6 13 7 12 14 14 10 4
19 19 19 17 15 13 9 7 7 7 4 4 7 18 6 3 8 16 18 14 6 2 2 3 3 3 3 4 2 6 3 5 3 4 15 11 12 13 11 11 14 14 12 14
21 20 18 16 13 10 4 3 1 4 4 2 5 4 4 2 3 10 12 10 7 4 3 3 3 4 2 3 3 5 6 8 7 5 15 12 9 9 13 11 16 17 19 16
20 21 22 19 14 4 4 2 3 3 3 2 4 5 3 2 2 3 4 8 4 3 3 4 3 3 3 3 4 4 7 6 6 10 11 12 13 12 13 13 14 17 16 15
24 23 21 16 12 7 5 7 12 4 2 3 4 5 4 1 1 2 3 4 4 5 3 2 3 2 2 5 6 6 5 5 7 9 8 7 11 14 15 13 14 15 15 14
24 21 12 1 2 3 2 5 5 7 2 3 3 3 3 1 1 1 2 3 4 2 3 3 2 2 6 5 5 3 3 4 6 7 8 10 13 15 15 15 16 15 15 17
18 4 2 2 2 13 9 4 3 3 4 4 4 3 4 2 1 1 2 1 2 2 3 2 4 4 9 6 5 2 1 2 4 6 10 12 13 14 16 15 12 13 14 14
5 5 3 5 11 2 3 3 3 4 4 5 4 6 6 3 5 3 2 1 1 3 1 2 2 3 3 3 5 4 4 4 4 4 4 5 9 11 10 12 14 13 14 13
6 8 8 4 3 3 4 4 2 5 5 4 3 3 5 2 2 3 2 2 1 4 2 2 3 4 4 3 4 6 6 5 6 5 4 6 9 11 11 11 11 11 11 11
2 3 4 3 3 5 6 6 5 4 4 2 1 2 2 3 3 3 2 3 3 2 2 3 4 2 3 5 5 7 6 6 6 6 5 4 7 11 12 11 11 12 12 12
3 4 5 6 6 7 6 6 1 1 2 4 3 3 3 3 4 2 4 2 1 2 3 4 2 3 5 4 5 6 8 5 5 7 5 5 7 9 11 12 11 11 11 11
4 4 7 7 5 4 3 4 4 3 3 4 5 2 1 2 1 2 1 3 3 4 4 3 2 3 5 7 4 5 7 7 5 6 6 5 6 8 10 12 12 13 11 11
4 6 5 6 6 6 3 2 4 3 3 5 3 3 2 3 2 4 5 3 4 3 4 3 1 4 5 5 6 5 5 5 5 6 5 5 6 7 8 10 12 12 13 13
5 4 4 8 9 8 7 3 4 3 4 3 2 3 3 2 2 3 4 4 2 3 5 3 4 4 6 6 5 7 8 9 8 8 7 7 7 6 6 10 10 11 12 11
Wind_Direction
337 341 347 348 347 346 2 343 286 8 321 51 45 357 321 310 291 312 281 263 271 270 305 294 274 263 275 323 327 321 333 295 289 272 194 250 312 287 280 238 221 241 277 282
334 337 339 339 343 7 326 349 296 345 314 56 4 327 298 272 283 318 300 294 279 314 278 301 256 281 288 340 308 305 354 288 314 308 150 162 271 297 260 265 269 252 243 235
334 337 338 338 335 356 341 335 332 3 45 41 18 329 327 318 326 299 267 297 286 279 276 286 280 281 294 302 296 293 318 244 254 270 304 316 292 292 285 286 258 259 245 261
331 336 338 336 336 351 343 9 42 9 322 6 320 302 281 287 307 296 315 264 238 313 281 302 268 269 299 290 287 277 262 259 240 254 268 283 280 280 279 267 257 257 264 252
331 332 333 339 340 344 63 3 352 3 294 296 298 275 248 291 333 309 296 259 295 297 290 283 287 290 282 245 302 240 234 260 280 267 263 258 269 269 265 258 259 258 261 265
334 334 333 337 342 355 346 143 182 214 280 304 307 281 318 306 323 290 249 296 297 285 286 294 286 280 277 257 238 246 242 234 269 262 246 285 269 249 243 254 253 258 252 257
355 355 342 327 334 305 261 196 166 259 285 256 283 296 301 298 291 286 280 292 276 292 316 299 275 250 255 252 243 230 240 226 229 265 275 247 352 65 330 287 277 269 260 257
340 339 335 337 331 324 191 201 201 224 268 276 290 312 309 305 298 278 274 283 292 319 305 311 314 225 202 242 206 221 228 235 251 241 205 285 283 43 338 312 296 281 270 242
329 332 343 333 327 313 236 216 200 202 283 247 264 306 296 304 316 308 284 313 315 310 324 315 354 336 321 318 320 206 270 213 237 235 254 269 79 329 327 298 267 273 298 234
333 332 335 327 323 318 312 252 186 215 254 258 219 252 305 289 279 291 297 339 298 312 9 21 0 312 314 313 312 326 314 275 213 245 248 255 49 333 314 214 14 324 312 286
324 327 326 321 317 315 324 267 191 207 253 270 256 260 245 248 206 235 325 314 191 293 16 356 0 296 329 295 296 307 311 313 315 274 280 310 339 326 304 295 297 293 291 288
324 323 321 318 312 309 317 266 207 222 259 274 292 270 260 253 245 248 241 290 295 278 291 263 292 287 273 310 306 339 307 329 299 266 288 277 301 270 273 283 289 279 296 293
323 319 314 311 309 306 301 280 259 199 258 269 265 270 274 232 225 210 212 227 255 229 182 284 263 267 282 298 299 282 278 324 265 282 275 289 305 299 273 291 321 291 280 277
319 317 313 309 305 310 305 266 292 269 308 273 283 318 267 233 200 194 207 133 77 323 209 217 243 260 206 251 278 279 273 319 312 268 286 311 286 306 327 300 295 304 319 322
316 313 312 308 304 301 297 270 245 214 221 269 291 301 268 248 195 200 206 219 242 282 252 219 237 244 250 230 269 257 283 316 317 302 309 313 310 322 349 340 328 337 1 11
317 313 308 303 296 295 292 284 161 226 182 283 290 303 270 292 201 190 190 197 216 240 242 227 234 253 231 270 235 272 281 297 288 289 311 315 341 326 335 331 339 354 10 12
313 307 302 292 279 239 224 274 8 126 126 242 275 276 248 298 155 119 150 181 211 233 234 224 238 246 212 263 275 321 332 330 341 346 344 353 355 342 344 350 350 352 2 6
312 308 304 292 248 221 243 243 240 164 240 234 266 276 282 184 209 144 169 180 203 211 252 240 235 198 233 254 246 290 318 355 14 3 10 360 351 4 7 8 8 354 357 358
316 316 310 157 166 187 244 356 242 170 266 274 242 264 290 337 64 110 187 185 231 176 236 247 189 176 233 227 197 226 342 21 341 347 354 12 14 8 9 13 15 3 358 358
328 343 284 212 78 318 299 181 192 148 192 223 254 219 265 306 358 296 245 183 256 245 212 209 221 255 267 266 207 164 139 65 17 360 0 360 10 10 8 13 14 7 358 4
353 352 310 324 308 268 221 242 213 178 218 212 229 237 234 194 224 246 234 271 225 265 118 257 276 264 269 251 192 198 158 98 60 37 33 21 10 16 10 14 11 15 11 16
281 290 294 275 270 250 241 218 220 200 241 193 207 206 205 211 212 225 207 262 211 251 353 223 252 256 260 212 197 149 148 106 85 50 42 23 20 22 26 19 15 15 24 20
290 206 234 227 210 235 221 216 197 205 196 159 201 225 215 177 213 215 217 231 242 309 252 253 236 226 261 182 172 125 138 118 93 74 53 43 25 31 34 28 23 24 26 23
276 260 248 219 210 226 212 227 291 49 324 357 300 236 244 131 188 173 221 172 221 262 249 248 251 213 187 197 160 146 140 117 90 79 62 60 28 27 34 36 31 35 33 28
260 254 242 237 242 263 274 272 269 299 291 289 288 245 226 113 271 226 135 185 230 229 240 245 274 197 162 171 176 164 147 143 125 92 86 75 45 33 36 42 38 42 41 41
238 236 274 292 296 296 296 321 303 306 325 307 234 261 279 197 211 192 212 184 222 252 233 260 311 186 169 165 181 173 146 141 123 102 107 107 75 53 54 56 51 45 43 40
249 252 270 266 280 279 284 294 301 322 298 251 204 239 230 144 165 223 195 192 245 279 300 300 250 244 181 173 165 160 157 150 145 132 133 121 111 93 62 54 58 61 54 49